Location: Munkebjergskolens Observatorium
(55.3864°N, 10.3987°E)
Time: 14:38:24
(UTC+01:00)

BlueWalker 3 - Pass Details

Date: 03 December 2022
Orbit: 499 x 517 km, 53.2° (Epoch: 30 January)

Event Time Altitude Azimuth Distance (km) Brightness Sun altitude
Rises 18:20:29 0° 270° (W) 2,630 7.1 -19.8°
Reaches altitude 10° 18:22:42 10° 267° (W) 1,739 5.9 -20.1°
Maximum altitude 18:26:35 61° 187° (S) 582 2.2 -20.6°
Enters shadow 18:27:10 53° 145° (SE) 631 2.2 -20.7°
